Weather History for KAPA - July, 2014

Change the Weather History Date:

Monday, July 7, 2014

  Actual Average Record
Temperature  
Mean Temperature 79 °F -  
Max Temperature 96 °F 86 °F 96 °F (2014)
Min Temperature 62 °F 55 °F 52 °F (2004)
Cooling Degree Days 14    
Month to date cooling degree days 63  
Growing Degree Days 29 (Base 50)    
Moisture  
Dew Point 41 °F    
Average Humidity 48    
Maximum Humidity 87    
Minimum Humidity 9    
Precipitation  
Precipitation 0.02 in - - ()
Month to date precipitation 0.02  
Year to date precipitation 5.62  
Sea Level Pressure  
Sea Level Pressure 29.93 in    
Wind  
Wind Speed 9 mph (North)    
Max Wind Speed 31 mph    
Max Gust Speed 41 mph    
Visibility 10 miles    
Events Rain , Thunderstorm    
Averages and records for this station are not official NWS values.
T = Trace of Precipitation, MM = Missing Value Source: NWS Daily Summary

Daily Weather History Graph

Daily Weather History Graph

Search for Another Location

Airport or City:

Trip Planner

Search our weather history database for the weather conditions in past years. The results will help you decide how hot, cold, wet, or windy it might be!

Date:

Astronomy

Jul. 07, 2014 Rise Set
Actual Time 5:39 AM MDT 8:29 PM MDT
Civil Twilight 5:06 AM MDT 9:01 PM MDT
Nautical Twilight 4:26 AM MDT 9:41 PM MDT
Astronomical Twilight 3:40 AM MDT 10:27 PM MDT
Moon 3:35 PM MDT (7/7) 1:33 AM MDT (7/7)
Length of Visible Light 15h 54m
Length of Day
14h 50m
Waxing Gibbous, 73% of the Moon is Illuminated
Jul 7
Waxing Gibbous
Jul 12
Full
Jul 18
Last Quarter
Jul 26
New
Aug 3
First Quarter

Hourly Weather History & Observations

Time (MDT) Temp. Dew Point Humidity Pressure Visibility Wind Dir Wind Speed Gust Speed Precip Events Conditions
12:53 AM 66.9 °F 41.0 °F 39% 29.91 in 10.0 mi South 6.9 mph - N/A   Partly Cloudy
1:53 AM 73.9 °F 39.0 °F 28% 29.87 in 10.0 mi SSW 13.8 mph - N/A   Clear
2:53 AM 75.0 °F 37.9 °F 26% 29.86 in 10.0 mi SW 12.7 mph - N/A   Partly Cloudy
3:53 AM 73.9 °F 37.0 °F 26% 29.85 in 10.0 mi SW 8.1 mph - N/A   Clear
4:53 AM 68.0 °F 39.0 °F 35% 29.88 in 10.0 mi Calm Calm - N/A   Clear
5:53 AM 66.0 °F 39.0 °F 37% 29.88 in 10.0 mi South 4.6 mph - N/A   Partly Cloudy
6:53 AM 72.0 °F 41.0 °F 33% 29.87 in 10.0 mi South 6.9 mph - N/A   Clear
7:53 AM 79.0 °F 39.0 °F 24% 29.85 in 10.0 mi WSW 8.1 mph - N/A   Partly Cloudy
8:53 AM 82.0 °F 39.0 °F 22% 29.86 in 10.0 mi West 9.2 mph - N/A   Clear
9:53 AM 87.1 °F 36.0 °F 16% 29.85 in 10.0 mi Variable 4.6 mph - N/A   Partly Cloudy
10:53 AM 91.0 °F 35.1 °F 14% 29.82 in 10.0 mi NW 6.9 mph - N/A   Partly Cloudy
11:53 AM 93.0 °F 33.1 °F 12% 29.81 in 10.0 mi NNE 9.2 mph - N/A   Partly Cloudy
12:53 PM 91.9 °F 28.9 °F 11% 29.82 in 10.0 mi Variable 3.5 mph - N/A   Scattered Clouds
1:53 PM 93.0 °F 26.1 °F 9% 29.78 in 10.0 mi Variable 3.5 mph - N/A   Mostly Cloudy
2:53 PM 95.0 °F 30.0 °F 10% 29.77 in 10.0 mi North 9.2 mph - N/A   Mostly Cloudy
3:53 PM 93.9 °F 28.0 °F 10% 29.75 in 10.0 mi ESE 4.6 mph - N/A   Mostly Cloudy
4:53 PM 90.0 °F 30.9 °F 12% 29.78 in 10.0 mi North 29.9 mph 38.0 mph 0.00 in Rain Light Rain
5:53 PM 88.0 °F 34.0 °F 15% 29.79 in 10.0 mi West 16.1 mph - 0.00 in   Mostly Cloudy
6:41 PM 84.9 °F 36.0 °F 17% 30.07 in 10.0 mi SSE 12.7 mph 23.0 mph 0.00 in Thunderstorm Thunderstorm
6:53 PM 82.0 °F 39.9 °F 22% 29.83 in 10.0 mi SE 17.3 mph 23.0 mph 0.00 in Thunderstorm Thunderstorm
7:07 PM 81.0 °F 39.9 °F 23% 30.07 in 10.0 mi Variable 4.6 mph 28.8 mph 0.00 in Rain Light Rain
7:13 PM 81.0 °F 41.0 °F 24% 30.07 in 10.0 mi Variable 3.5 mph - 0.00 in Thunderstorm Thunderstorm
7:45 PM 81.0 °F 42.1 °F 25% 30.12 in 10.0 mi NNE 6.9 mph - 0.00 in   Mostly Cloudy
7:53 PM 80.1 °F 44.1 °F 28% 29.86 in 10.0 mi NNE 12.7 mph 20.7 mph 0.00 in   Mostly Cloudy
8:53 PM 72.0 °F 50.0 °F 46% 29.86 in 10.0 mi NE 15.0 mph 26.5 mph N/A   Mostly Cloudy
9:06 PM 72.0 °F 50.0 °F 46% 30.16 in 10.0 mi NNE 10.4 mph 24.2 mph N/A Thunderstorm Thunderstorm
9:46 PM 64.9 °F 59.0 °F 81% 30.21 in 4.0 mi NNE 18.4 mph 34.5 mph 0.00 in Rain , Thunderstorm Light Thunderstorms and Rain
9:53 PM 63.0 °F 55.9 °F 78% 29.98 in 4.0 mi NNE 15.0 mph 26.5 mph 0.02 in Rain , Thunderstorm Light Thunderstorms and Rain
10:00 PM 63.0 °F 55.0 °F 75% 30.21 in 5.0 mi NE 11.5 mph 21.9 mph 0.00 in Rain , Thunderstorm Light Thunderstorms and Rain
10:15 PM 66.0 °F 57.9 °F 75% 30.20 in 10.0 mi ESE 10.4 mph - 0.00 in Rain Light Rain
10:53 PM 64.9 °F 60.1 °F 84% 29.99 in 10.0 mi WNW 8.1 mph - 0.00 in   Overcast
11:53 PM 64.9 °F 60.1 °F 84% 30.01 in 10.0 mi West 9.2 mph - 0.00 in   Mostly Cloudy